Time,TemperatureF,DewpointF,PressureIn,WindDirection,WindDirectionDegrees,WindSpeedMPH,WindSpeedGustMPH,Humidity,HourlyPrecipIn,Conditions,Clouds,dailyrainin,SoftwareType,DateUTC
2013-05-24 00:00:00,76.5,75.9,29.98,NNE,22,5.8,-999.0,98,-99.99,,,0.00,Acu-Link.com,2013-05-24 05:00:00,
2013-05-24 00:16:00,76.3,75.7,29.96,North,0,3.8,-999.0,98,-99.99,,,0.00,Acu-Link.com,2013-05-24 05:16:00,
2013-05-24 00:31:00,76.1,75.5,29.96,NNW,337,1.6,-999.0,98,-99.99,,,0.00,Acu-Link.com,2013-05-24 05:31:00,
2013-05-24 00:46:00,75.9,75.3,29.97,East,90,1.6,-999.0,98,-99.99,,,0.00,Acu-Link.com,2013-05-24 05:46:00,
2013-05-24 01:01:00,75.7,75.1,29.97,West,270,0.0,-999.0,98,-99.99,,,0.00,Acu-Link.com,2013-05-24 06:01:00,
2013-05-24 01:16:00,75.4,74.8,29.96,ESE,112,1.1,-999.0,98,-99.99,,,0.00,Acu-Link.com,2013-05-24 06:16:00,
2013-05-24 01:32:00,75.4,74.8,29.95,ESE,112,3.8,-999.0,98,-99.99,,,0.00,Acu-Link.com,2013-05-24 06:32:00,
2013-05-24 01:47:00,75.4,74.8,29.96,SSW,202,4.3,-999.0,98,-99.99,,,0.00,Acu-Link.com,2013-05-24 06:47:00,
2013-05-24 02:02:00,75.2,74.6,29.95,SSE,157,5.1,-999.0,98,-99.99,,,0.00,Acu-Link.com,2013-05-24 07:02:00,
2013-05-24 02:17:00,75.0,74.4,29.96,ESE,112,4.7,-999.0,98,-99.99,,,0.00,Acu-Link.com,2013-05-24 07:17:00,
2013-05-24 02:32:00,74.8,74.2,29.96,ESE,112,2.2,-999.0,98,-99.99,,,0.00,Acu-Link.com,2013-05-24 07:32:00,
2013-05-24 02:48:00,74.7,74.1,29.96,South,180,1.6,-999.0,98,-99.99,,,0.00,Acu-Link.com,2013-05-24 07:48:00,
2013-05-24 03:03:00,74.7,74.1,29.95,South,180,2.7,-999.0,98,-99.99,,,0.00,Acu-Link.com,2013-05-24 08:03:00,
2013-05-24 03:19:00,74.5,73.9,29.95,South,180,1.1,-999.0,98,-99.99,,,0.00,Acu-Link.com,2013-05-24 08:19:00,
2013-05-24 03:34:00,74.3,73.7,29.95,South,180,3.8,-999.0,98,-99.99,,,0.00,Acu-Link.com,2013-05-24 08:34:00,
2013-05-24 03:49:00,74.5,73.9,29.95,South,180,4.3,-999.0,98,-99.99,,,0.00,Acu-Link.com,2013-05-24 08:49:00,
2013-05-24 04:04:00,74.3,73.7,29.94,East,90,1.6,-999.0,98,-99.99,,,0.00,Acu-Link.com,2013-05-24 09:04:00,
2013-05-24 04:19:00,74.5,73.9,29.94,SE,135,0.0,-999.0,98,-99.99,,,0.00,Acu-Link.com,2013-05-24 09:19:00,
2013-05-24 04:34:00,74.7,74.1,29.94,South,180,0.0,-999.0,98,-99.99,,,0.00,Acu-Link.com,2013-05-24 09:34:00,
2013-05-24 04:49:00,74.8,74.2,29.95,SW,225,3.8,-999.0,98,-99.99,,,0.00,Acu-Link.com,2013-05-24 09:49:00,
2013-05-24 05:05:00,74.8,74.2,29.93,South,180,3.1,-999.0,98,-99.99,,,0.00,Acu-Link.com,2013-05-24 10:05:00,
2013-05-24 05:20:00,74.3,73.7,29.94,WSW,247,0.0,-999.0,98,-99.99,,,0.00,Acu-Link.com,2013-05-24 10:20:00,
2013-05-24 05:35:00,73.4,72.8,29.94,South,180,2.2,-999.0,98,-99.99,,,0.00,Acu-Link.com,2013-05-24 10:35:00,
2013-05-24 05:50:00,72.9,72.3,29.92,SE,135,0.0,-999.0,98,-99.99,,,0.00,Acu-Link.com,2013-05-24 10:50:00,
2013-05-24 06:05:00,72.3,71.7,29.93,NNW,337,0.0,-999.0,98,-99.99,,,0.00,Acu-Link.com,2013-05-24 11:05:00,
2013-05-24 06:21:00,72.1,71.5,29.94,NNW,337,0.0,-999.0,98,-99.99,,,0.00,Acu-Link.com,2013-05-24 11:21:00,
2013-05-24 06:36:00,72.5,71.9,29.94,NNW,337,0.0,-999.0,98,-99.99,,,0.00,Acu-Link.com,2013-05-24 11:36:00,
2013-05-24 06:51:00,72.3,71.7,29.97,WNW,292,0.0,-999.0,98,-99.99,,,0.00,Acu-Link.com,2013-05-24 11:51:00,
2013-05-24 07:06:00,72.5,71.9,29.98,NE,45,1.1,-999.0,98,-99.99,,,0.00,Acu-Link.com,2013-05-24 12:06:00,
2013-05-24 07:21:00,72.3,71.7,29.98,NE,45,2.2,-999.0,98,-99.99,,,0.00,Acu-Link.com,2013-05-24 12:21:00,
2013-05-24 07:22:00,72.3,71.7,29.98,NE,45,2.2,-999.0,98,-99.99,,,0.00,Acu-Link.com,2013-05-24 12:22:00,
2013-05-24 07:37:00,72.5,71.9,29.98,NE,45,3.1,-999.0,98,-99.99,,,0.00,Acu-Link.com,2013-05-24 12:37:00,
2013-05-24 07:52:00,72.9,72.3,29.99,SE,135,0.0,-999.0,98,-99.99,,,0.00,Acu-Link.com,2013-05-24 12:52:00,
2013-05-24 08:07:00,73.8,73.2,30.00,South,180,2.7,-999.0,98,-99.99,,,0.00,Acu-Link.com,2013-05-24 13:07:00,
2013-05-24 08:22:00,74.5,73.9,30.00,WSW,247,0.0,-999.0,98,-99.99,,,0.00,Acu-Link.com,2013-05-24 13:22:00,
2013-05-24 08:38:00,75.6,75.0,30.00,NNW,337,0.0,-999.0,98,-99.99,,,0.00,Acu-Link.com,2013-05-24 13:38:00,
2013-05-24 08:53:00,76.3,75.7,30.00,ESE,112,2.7,-999.0,98,-99.99,,,0.00,Acu-Link.com,2013-05-24 13:53:00,
2013-05-24 09:08:00,76.8,76.2,30.01,SSE,157,4.3,-999.0,98,-99.99,,,0.00,Acu-Link.com,2013-05-24 14:08:00,
2013-05-24 09:23:00,78.3,77.6,30.01,SE,135,1.1,-999.0,98,-99.99,,,0.00,Acu-Link.com,2013-05-24 14:23:00,
2013-05-24 09:38:00,78.8,78.2,30.02,NE,45,6.3,-999.0,98,-99.99,,,0.00,Acu-Link.com,2013-05-24 14:38:00,
2013-05-24 09:54:00,80.1,79.4,30.02,SSE,157,3.1,-999.0,98,-99.99,,,0.00,Acu-Link.com,2013-05-24 14:54:00,
2013-05-24 10:09:00,79.7,79.1,30.02,South,180,3.8,-999.0,98,-99.99,,,0.00,Acu-Link.com,2013-05-24 15:09:00,
2013-05-24 10:24:00,77.9,77.3,30.03,South,180,3.1,-999.0,98,-99.99,,,0.00,Acu-Link.com,2013-05-24 15:24:00,
2013-05-24 10:39:00,78.4,77.8,30.03,ESE,112,2.2,-999.0,98,-99.99,,,0.00,Acu-Link.com,2013-05-24 15:39:00,
2013-05-24 10:54:00,79.7,79.1,30.04,SE,135,1.1,-999.0,98,-99.99,,,0.00,Acu-Link.com,2013-05-24 15:54:00,
2013-05-24 11:10:00,79.3,78.7,30.04,SSE,157,4.3,-999.0,98,-99.99,,,0.00,Acu-Link.com,2013-05-24 16:10:00,
2013-05-24 11:25:00,79.2,78.5,30.04,South,180,3.8,-999.0,98,-99.99,,,0.00,Acu-Link.com,2013-05-24 16:25:00,
2013-05-24 11:40:00,79.7,79.1,30.05,ESE,112,1.6,-999.0,98,-99.99,,,0.00,Acu-Link.com,2013-05-24 16:40:00,
2013-05-24 11:55:00,81.5,80.9,30.05,SSE,157,5.8,-999.0,98,-99.99,,,0.00,Acu-Link.com,2013-05-24 16:55:00,
2013-05-24 12:10:00,81.0,80.3,30.05,SSE,157,2.2,-999.0,98,-99.99,,,0.00,Acu-Link.com,2013-05-24 17:10:00,
2013-05-24 12:26:00,81.9,81.2,30.05,South,180,3.8,-999.0,98,-99.99,,,0.00,Acu-Link.com,2013-05-24 17:26:00,
2013-05-24 12:41:00,82.4,81.8,30.04,SW,225,2.2,-999.0,98,-99.99,,,0.00,Acu-Link.com,2013-05-24 17:41:00,
2013-05-24 12:56:00,81.9,81.2,30.04,South,180,2.2,-999.0,98,-99.99,,,0.00,Acu-Link.com,2013-05-24 17:56:00,
2013-05-24 13:11:00,82.0,81.1,30.04,East,90,3.1,-999.0,97,-99.99,,,0.00,Acu-Link.com,2013-05-24 18:11:00,
2013-05-24 13:27:00,78.6,78.0,30.02,WSW,247,3.8,-999.0,98,-99.99,,,0.00,Acu-Link.com,2013-05-24 18:27:00,
2013-05-24 13:42:00,78.4,77.8,30.02,South,180,3.1,-999.0,98,-99.99,,,0.00,Acu-Link.com,2013-05-24 18:42:00,
2013-05-24 13:57:00,77.4,76.7,30.01,SSE,157,6.7,-999.0,98,-99.99,,,0.00,Acu-Link.com,2013-05-24 18:57:00,
2013-05-24 14:12:00,75.9,75.3,30.01,South,180,1.1,-999.0,98,-99.99,,,0.00,Acu-Link.com,2013-05-24 19:12:00,
2013-05-24 14:27:00,76.3,75.7,30.02,NW,315,1.6,-999.0,98,-99.99,,,0.00,Acu-Link.com,2013-05-24 19:27:00,
2013-05-24 14:43:00,77.9,77.3,30.01,WSW,247,3.1,-999.0,98,-99.99,,,0.00,Acu-Link.com,2013-05-24 19:43:00,
2013-05-24 14:58:00,79.3,78.7,30.01,SSW,202,0.0,-999.0,98,-99.99,,,0.00,Acu-Link.com,2013-05-24 19:58:00,
2013-05-24 15:13:00,79.3,78.7,30.00,ENE,67,3.8,-999.0,98,-99.99,,,0.00,Acu-Link.com,2013-05-24 20:13:00,
2013-05-24 15:28:00,74.8,74.2,30.01,SW,225,7.4,-999.0,98,-99.99,,,0.00,Acu-Link.com,2013-05-24 20:28:00,
2013-05-24 15:43:00,70.5,69.9,30.03,SW,225,2.2,-999.0,98,-99.99,,,0.01,Acu-Link.com,2013-05-24 20:43:00,
2013-05-24 15:59:00,70.9,70.3,30.01,WNW,292,0.0,-999.0,98,-99.99,,,0.18,Acu-Link.com,2013-05-24 20:59:00,
2013-05-24 16:14:00,71.8,71.2,30.01,ENE,67,1.6,-999.0,98,-99.99,,,0.18,Acu-Link.com,2013-05-24 21:14:00,
2013-05-24 16:29:00,70.3,69.7,30.02,NNE,22,2.7,-999.0,98,-99.99,,,0.19,Acu-Link.com,2013-05-24 21:29:00,
2013-05-24 16:44:00,69.6,69.0,30.01,ENE,67,2.7,-999.0,98,-99.99,,,0.19,Acu-Link.com,2013-05-24 21:44:00,
2013-05-24 16:59:00,68.9,68.3,30.01,South,180,2.2,-999.0,98,-99.99,,,0.19,Acu-Link.com,2013-05-24 21:59:00,
2013-05-24 17:15:00,68.9,68.3,30.02,ESE,112,0.0,-999.0,98,-99.99,,,0.19,Acu-Link.com,2013-05-24 22:15:00,
2013-05-24 17:30:00,69.8,69.2,30.01,SW,225,1.1,-999.0,98,-99.99,,,0.19,Acu-Link.com,2013-05-24 22:30:00,
2013-05-24 17:45:00,70.2,69.6,30.02,SW,225,3.8,-999.0,98,-99.99,,,0.19,Acu-Link.com,2013-05-24 22:45:00,
2013-05-24 18:00:00,71.1,70.5,30.02,NNW,337,3.1,-999.0,98,-99.99,,,0.19,Acu-Link.com,2013-05-24 23:00:00,
2013-05-24 18:16:00,71.6,71.0,30.01,WSW,247,4.7,-999.0,98,-99.99,,,0.19,Acu-Link.com,2013-05-24 23:16:00,
2013-05-24 18:31:00,71.6,71.0,30.01,NW,315,2.2,-999.0,98,-99.99,,,0.19,Acu-Link.com,2013-05-24 23:31:00,
2013-05-24 18:46:00,71.4,70.8,30.00,South,180,3.8,-999.0,98,-99.99,,,0.19,Acu-Link.com,2013-05-24 23:46:00,
2013-05-24 19:01:00,71.1,70.5,30.01,SSE,157,2.7,-999.0,98,-99.99,,,0.19,Acu-Link.com,2013-05-25 00:01:00,
2013-05-24 19:16:00,70.9,70.3,30.01,SSE,157,2.7,-999.0,98,-99.99,,,0.19,Acu-Link.com,2013-05-25 00:16:00,
2013-05-24 19:32:00,70.5,69.9,30.01,SSE,157,4.7,-999.0,98,-99.99,,,0.19,Acu-Link.com,2013-05-25 00:32:00,
2013-05-24 19:47:00,70.5,69.9,30.01,ESE,112,3.1,-999.0,98,-99.99,,,0.19,Acu-Link.com,2013-05-25 00:47:00,
2013-05-24 20:02:00,70.0,69.4,30.03,ENE,67,2.7,-999.0,98,-99.99,,,0.19,Acu-Link.com,2013-05-25 01:02:00,
2013-05-24 20:17:00,69.6,69.0,30.03,South,180,1.6,-999.0,98,-99.99,,,0.19,Acu-Link.com,2013-05-25 01:17:00,
2013-05-24 20:32:00,69.4,68.8,30.04,SSE,157,2.2,-999.0,98,-99.99,,,0.19,Acu-Link.com,2013-05-25 01:32:00,
2013-05-24 20:48:00,69.3,68.7,30.04,South,180,4.7,-999.0,98,-99.99,,,0.19,Acu-Link.com,2013-05-25 01:48:00,
2013-05-24 21:03:00,69.3,68.7,30.05,ESE,112,2.2,-999.0,98,-99.99,,,0.19,Acu-Link.com,2013-05-25 02:03:00,
2013-05-24 21:18:00,68.9,68.3,30.04,NNE,22,2.7,-999.0,98,-99.99,,,0.19,Acu-Link.com,2013-05-25 02:18:00,
2013-05-24 21:33:00,68.9,68.3,30.04,South,180,2.2,-999.0,98,-99.99,,,0.19,Acu-Link.com,2013-05-25 02:33:00,
2013-05-24 21:48:00,68.9,68.3,30.04,ESE,112,0.0,-999.0,98,-99.99,,,0.19,Acu-Link.com,2013-05-25 02:48:00,
2013-05-24 22:04:00,68.7,68.1,30.04,East,90,1.1,-999.0,98,-99.99,,,0.19,Acu-Link.com,2013-05-25 03:04:00,
2013-05-24 22:19:00,68.9,68.3,30.05,NE,45,1.6,-999.0,98,-99.99,,,0.19,Acu-Link.com,2013-05-25 03:19:00,
2013-05-24 22:34:00,69.3,68.7,30.05,South,180,1.6,-999.0,98,-99.99,,,0.19,Acu-Link.com,2013-05-25 03:34:00,
2013-05-24 22:49:00,68.0,67.4,30.06,NW,315,2.7,-999.0,98,-99.99,,,0.19,Acu-Link.com,2013-05-25 03:49:00,
2013-05-24 23:05:00,67.5,66.9,30.06,East,90,3.1,-999.0,98,-99.99,,,0.19,Acu-Link.com,2013-05-25 04:05:00,
2013-05-24 23:20:00,67.3,66.7,30.06,WNW,292,1.1,-999.0,98,-99.99,,,0.19,Acu-Link.com,2013-05-25 04:20:00,
2013-05-24 23:35:00,67.3,66.7,30.06,WSW,247,0.0,-999.0,98,-99.99,,,0.19,Acu-Link.com,2013-05-25 04:35:00,
2013-05-24 23:50:00,67.5,66.9,30.05,ENE,67,2.2,-999.0,98,-99.99,,,0.19,Acu-Link.com,2013-05-25 04:50:00,